Regional Weather Roundup
Issued by NWS

Home | Current Version | Previous Version | Text Only | Print | Product List | Glossary On
Versions: 1 2 3 4 5 6 7 8 9 10 11 12 13 14 15 16 17 18 19 20 21 22 23 24 25 26 27 28 29 30 31 32 33 34 35 36 37 38 39 40 41 42 43 44 45 46 47 48 49 50
000
ASUS43 KMKX 022215
RWRWI

WISCONSIN REGIONAL WEATHER ROUNDUP
NATIONAL WEATHER SERVICE MILWAUKEE/SULLIVAN WI
500 PM CDT TUE JUN 02 2015

NOTE: "FAIR" INDICATES FEW OR NO CLOUDS BELOW 12,000 FEET WITH NO
SIGNIFICANT WEATHER AND/OR OBSTRUCTIONS TO VISIBILITY.

WIZ001-002-006>008-014>016-023>028-022300-
NORTHWEST WISCONSIN

CITY           SKY/WX    TMP DP  RH WIND       PRES   REMARKS
SUPERIOR ARPT  MOSUNNY   53  41  64 NE8       29.94S
ASHLAND        MOSUNNY   74  48  39 S9        29.95F
HAYWARD        MOSUNNY   73  48  41 S16       29.97F
SIREN          PTSUNNY   75  52  45 S14G22    29.95S
CUMBERLAND     MOSUNNY   70  50  49 S17G24    29.97F
RICE LAKE      MOSUNNY   74  49  41 SE13      29.99F
CHETEK         MOSUNNY   73  53  49 S10       29.99F
LADYSMITH      SUNNY     73  47  38 S10       30.02F
EAU CLAIRE     MOSUNNY   72  48  42 S13       30.00F
MENOMONIE      PTSUNNY   73  52  47 SE14      30.00S
NEW RICHMOND   MOSUNNY   71  52  50 S14G20    29.97F
OSCEOLA        MOSUNNY   73  52  47 S17       29.98S
$$

WIZ003>005-009-010-017-018-022300-
NORTH CENTRAL WISCONSIN

CITY           SKY/WX    TMP DP  RH WIND       PRES   REMARKS
MANITOWISH WTR SUNNY     71  40  31 S15       30.01F
ARBOR VITAE    SUNNY     72  33  24 SW15      30.03F
WOODRUFF       SUNNY     72  33  24 SW15      30.03F
RHINELANDER    SUNNY     71  36  27 SW14G21   30.05F
EAGLE RIVER    SUNNY     71  31  22 S7G17     30.03F
LAND O LAKES   SUNNY     74  26  16 SW12G20   30.04F
PHILLIPS       PTSUNNY   70  43  38 S12       30.02S
TOMAHAWK       SUNNY     71  40  32 S6        30.05F
MEDFORD        SUNNY     69  41  36 S9G17     30.05F
MERRILL        SUNNY     72  40  31 S8        30.06F
$$

WIZ029-030-035-036-043>047-022300-
CENTRAL WISCONSIN

CITY           SKY/WX    TMP DP  RH WIND       PRES   REMARKS
WAUSAU         SUNNY     72  38  29 S12       30.04F
MOSINEE        SUNNY     72  41  33 S13       30.07F
MARSHFIELD     SUNNY     73  40  30 S9G16     30.05F
STEVENS POINT  SUNNY     71  38  30 SE9       30.07S
WAUPACA        SUNNY     75  38  25 S7        30.08S
WAUTOMA        SUNNY     74  41  30 VRB7      30.07F
WISC RAPIDS    SUNNY     75  37  25 SW10      30.07F
CAMP DOUGLAS   PTSUNNY   72  45  37 SW7       30.05F
$$

WIZ011>013-019>022-031-037>040-048>050-022300-
NORTHEAST WISCONSIN

CITY           SKY/WX    TMP DP  RH WIND       PRES   REMARKS
ANTIGO         SUNNY     68  44  40 S12G18    30.08S
SHAWANO        SUNNY     74  39  28 SW6       30.08S
OCONTO         MOSUNNY   68  44  41 SE10G20   30.09S
STURGEON BAY   PTSUNNY   63  37  39 S10       30.14S
GREEN BAY      SUNNY     71  41  33 SE12G22   30.09F
MANITOWOC      MOSUNNY   64  37  36 SE8       30.13F
APPLETON       SUNNY     70  37  30 SE13      30.10F
CLINTONVILLE   SUNNY     72  41  33 S12       30.07F
OSHKOSH        SUNNY     71  38  29 SE9G18    30.08F
$$

WIZ032>034-041-042-053>061-022300-
SOUTHWEST WISCONSIN

CITY           SKY/WX    TMP DP  RH WIND       PRES   REMARKS
LA CROSSE      PTSUNNY   74  49  41 S9        30.03F
SPARTA         PTSUNNY   74  43  32 S9        30.05F
VIROQUA        PTSUNNY   70  48  46 S7        30.06F
BOSCOBEL       MOSUNNY   74  47  38 VRB3      30.05F
PRAIRIE DU CHI PTSUNNY   71  47  43 S5        30.05S
PLATTEVILLE    MOSUNNY   71  46  40 SE7       30.07S
$$

WIZ056-057-062-063-064-067-068-022300-
SOUTH CENTRAL WISCONSIN

CITY           SKY/WX    TMP DP  RH WIND       PRES   REMARKS
REEDSBURG      SUNNY     71  45  39 S6        30.06S
BARABOO/DELLS  SUNNY     70  44  39 S9        30.07S
LONE ROCK      MOSUNNY   73  40  30 S8        30.06F
MINERAL POINT  MOSUNNY   72  37  28 SE5       30.07F
MADISON        MOSUNNY   72  43  35 S9        30.07F
MIDDLETON      SUNNY     74  40  28 S9        30.07F
WATERTOWN      SUNNY     72  46  38 S6        30.07F
MONROE         SUNNY     72  43  35 S5        30.07F
JANESVILLE     SUNNY     73  45  35 S13       30.07F
$$

WIZ051-052-058>065-066-070>072-022300-
SOUTHEAST WISCONSIN

CITY           SKY/WX    TMP DP  RH WIND       PRES   REMARKS
MILWAUKEE      MOSUNNY   63  45  51 SE12      30.12F
WAUKESHA       SUNNY     66  37  34 S7        30.11S
MILWAUKEE/TIMM SUNNY     64  39  39 E8        30.12F
RACINE         SUNNY     65  43  44 SE9       30.13F
BURLINGTON     SUNNY     68  44  41 SE10      30.10S
KENOSHA        SUNNY     66  43  43 SE9       30.11F
FOND DU LAC    SUNNY     70  37  29 VRB7      30.10S
SHEBOYGAN      MOSUNNY   63  43  48 S10       30.12F
WEST BEND      SUNNY     64  41  42 E8        30.11S
JUNEAU         SUNNY     71  43  36 E5        30.09F
$$

LSZ147-162-022300-
LAKE SUPERIOR

STATION/POSITION TIME  TEMP    WIND        PRES    WAVE
                       AIR SEA DIR/SP/G            HT/PER
                 (UTC) (F)     (DEG/KT/KT) (MB)    (FT/S)
W MID LAKE BUOY  2150   42 37   90/ 12/ 14   N/A     0
DEVILS ISLAND    2200   46      50/ 10/ 11   N/A
PORT WING        2140   49      20/ 14/ 17   N/A
SAXON HARBOR     2100   77     180/  7/ 16   N/A
$$

LMZ867-665-643>646-022300-
LAKE MICHIGAN

STATION/POSITION TIME  TEMP    WIND        PRES    WAVE
                       AIR SEA DIR/SP/G            HT/PER
                 (UTC) (F)     (DEG/KT/KT) (MB)    (FT/S)
CHAMBERS ISLAND  2100   67     150/  8/ 13   N/A
N MID LAKE BUOY  2150   44 38  180/  4/  4   N/A     0
NORTHPORT PIER   2100   57     150/  7/ 10   N/A
SISTER BAY       2118   65     180/ 11/ 14   N/A
ALGOMA LAKESHORE 2109          210/  9/ 11   N/A
KEWAUNEE LAKESHO 2100   50     170/  9/  9   N/A
SHEBOYGAN LAKESH 2200   50     180/  6/  6   N/A
PORT WASHINGTON  2140   54      CALM  /  2   N/A
ATWATER BUOY     2100   48 49   70/  4/  4   N/A
MILWAUKEE LAKESH 2100   48      60/  5/  5   N/A
S MID LAKE BUOY  2150   46 39  340/  6/  8   N/A
KENOSHA   LAKESH 2200   53      50/  2/  3   N/A
$$

TC  - TEMPERATURE IN CELSIUS
VSB - VISIBILITY IN STATUTE MILES
WCI - WIND CHILL INDEX
HX  - HEAT INDEX



USA.gov is the U.S. government's official web portal to all federal, state and local government web resources and services.